{"data":{"norad_id":65765,"epoch":"2026-09-19T16:29:15.806400Z","epoch_age_seconds":216957,"freshness":"STALE","line1":"1 65765U 25217D   26262.68698850  .00001902  00000+0  27847-3 0  9996","line2":"2 65765  51.8981 242.7544 0000790  58.1125 301.9914 14.79924984 53922","mean_motion":14.79924984,"eccentricity":7.9e-5,"inclination_deg":51.8981,"raan_deg":242.7544,"arg_perigee_deg":58.1125,"mean_anomaly_deg":301.9914,"bstar":0.00027847,"rev_number":5392,"period_min":97.302229205423,"perigee_km":629.00732567807,"apogee_km":630.11454195161,"semimajor_km":7007.6979338148,"source":"CELESTRAK","updated_at":"2026-09-21T09:00:15.534298Z"}}